Regional Weather Roundup
Issued by NWS Midland/Odessa, TX

Skip options and go directly to product.
Home | Oldest Version | Previous Version | Current Version | All | Graphics & Text | Save Text | Print | Product List | Glossary On

Skip product version selection by date and time.   
793
ASUS44 KMAF 270610
RWRMAF
MIDLAND AREA WEATHER ROUNDUP
NATIONAL WEATHER SERVICE MIDLAND TX
1200 AM CST FRI FEB 27 2015

...IN SOUTHWEST TEXAS AND SOUTHEAST NEW MEXICO...

CITY           SKY/WX    TMP DP  RH WIND       PRES   REMARKS
ALPINE         CLOUDY    26  24  96 NE9       30.19F WCI  16
ANDREWS        CLOUDY    26  11  55 E14       30.25F WCI  14
ARTESIA        CLOUDY    28  19  69 SE14      30.22F WCI  17
BIG SPRING     CLOUDY    28   9  44 NE14      30.31S WCI  17
CARLSBAD       CLOUDY    29  18  63 E8        30.21F WCI  21
DRYDEN           N/A     33  23  66 NE13      30.24S WCI  24
FORT STOCKTON  CLOUDY    27  20  75 E13       30.23F WCI  16
GUAD PASS      FRZ RAIN  20  19  96 NE38      29.98F VSB 3/4 WCI  -1
HOBBS          CLOUDY    25  12  58 E13       30.23S WCI  13
MARFA          CLOUDY    27  25  93 NE15G21   30.10F WCI  15
MIDLAND AIRPK  CLOUDY    28  14  54 E14       30.27F WCI  17
MIDLAND INTL   CLOUDY    27  14  58 E16       30.25F WCI  15
ODESSA         CLOUDY    27  13  55 E17       30.25F WCI  14
PECOS          CLOUDY    29  19  66 E15       30.26S WCI  18
PRESIDIO       FAIR      40  28  62 NE15G21   30.08F WCI  31
SEMINOLE       CLOUDY    25  11  54 E15       30.25F WCI  13
SNYDER         CLOUDY    25   7  46 NE14G23   30.32F WCI  14
WINK           CLOUDY    30  16  56 E12       30.23F WCI  20
$$
...OTHER STATIONS IN TEXAS...

CITY           SKY/WX    TMP DP  RH WIND       PRES   REMARKS
ABILENE        CLOUDY    26  11  52 NE10G20   30.37S WCI  16
AMARILLO       CLOUDY    20   5  52 E16       30.29F WCI   6
AUSTIN         CLOUDY    37  22  54 N17       30.36R WCI  27
BROWNSVILLE    CLOUDY    56  48  74 NE7       30.20R
CORPUS CHRISTI CLEAR     46  37  71 NE23G32   30.27S WCI  38
DALLAS FTW     CLOUDY    30  11  45 NE20G28   30.41F WCI  17
DEL RIO        CLOUDY    41  26  55 NE6       30.29R WCI  37
EL PASO        MOCLDY    34  24  67 NE15      30.03R WCI  24
HOUSTON INT    CLOUDY    39  32  76 NE13      30.34S WCI  31
LUBBOCK        CLOUDY    22  11  62 E13       30.27S WCI  10
SAN ANGELO     CLOUDY    29  17  61 NE13      30.32S WCI  19
SAN ANTONIO    CLOUDY    38  25  59 N14       30.32F WCI  30
WACO           CLOUDY    34  22  61 N8        30.40R WCI  27
WICHITA FALLS  NOT AVBL
$$
...OTHER LOCATIONS IN NEW MEXICO...

CITY           SKY/WX    TMP DP  RH WIND       PRES   REMARKS
ALAMAGORDO     MIX PCPN  36  32  87 MISG      30.02F
ALBUQUERQUE    LGT SNOW  25  22  88 E23       29.98R VSB 3/4 WCI  10
CANNON AFB     CLOUDY    21  16  79 SE15      30.18S WCI   8
CLOVIS         CLOUDY    19  14  79 SE17      30.18F WCI   4
HOLLOMAN AFB   LGT RAIN  39  25  56 N6        30.02S WCI  35
ROSWELL        LGT SNOW  25  22  88 SE12      30.19F VSB 1   WCI  14
RUIDOSO        LGT SNOW  19  18  93 MISG      30.03F VSB 3/4
SANTA FE       LGT SNOW  19  13  77 SE20      29.96F WCI   3
TRUTH OR CONSE CLOUDY    35  33  92 N6        29.94F WCI  30
TUCUMCARI      LGT SNOW  22  18  85 E14       30.19F FOG     WCI   9
$$

USA.gov is the U.S. government's official web portal to all federal, state and local government web resources and services.